When you browse on this site, cookies collect data to enhance your experience and personalize the content and advertising you see.
Visit our Privacy Policy to learn more. By continuing to use the site, you agree to this use of cookies and data.
  • In Hungary
  • List of Countries
  • For 7 days
  • Water Temperature
  • Satellite Maps
  • Weather Map
  • News
  • Weather Widgets
  • user-avatar
    Login

    Hourly Weather Juye

    Today, 20 February, Wednesday

    Time Temperature Precipitation Wind Pressure Humidity
    00:00 +2°C° 0 mm 0 mps 766 mmHg 59%
    01:00 +1°C° 0 mm 0 mps 766 mmHg 60%
    02:00 +1°C° 0 mm 1 mps 766 mmHg 62%
    03:00 +1°C° 0 mm 1 mps 766 mmHg 63%
    04:00 +1°C° 0 mm 1 mps 766 mmHg 64%
    05:00 0°C° 0 mm 1 mps 767 mmHg 66%
    06:00 +1°C° 0 mm 1 mps 767 mmHg 64%
    07:00 +1°C° 0 mm 1 mps 767 mmHg 62%
    08:00 +1°C° 0 mm 1 mps 768 mmHg 63%
    09:00 +3°C° 0 mm 1 mps 768 mmHg 55%
    10:00 +4°C° 0 mm 2 mps 768 mmHg 47%
    11:00 +6°C° 0 mm 2 mps 768 mmHg 39%
    12:00 +8°C° 0 mm 2 mps 768 mmHg 35%
    13:00 +9°C° 0 mm 2 mps 768 mmHg 30%
    14:00 +11°C° 0 mm 1 mps 767 mmHg 25%
    15:00 +11°C° 0 mm 1 mps 767 mmHg 25%
    16:00 +10°C° 0 mm 2 mps 767 mmHg 24%
    17:00 +10°C° 0 mm 2 mps 767 mmHg 24%
    18:00 +9°C° 0 mm 2 mps 768 mmHg 27%
    19:00 +7°C° 0 mm 2 mps 768 mmHg 29%
    20:00 +6°C° 0 mm 2 mps 768 mmHg 32%
    21:00 +5°C° 0 mm 2 mps 769 mmHg 34%
    22:00 +6°C° 0 mm 1 mps 769 mmHg 36%
    23:00 +5°C° 0 mm 1 mps 769 mmHg 37%

    Tomorrow, 21 February, Thursday

    Time Temperature Precipitation Wind Pressure Humidity
    00:00 +5°C° 0 mm 1 mps 769 mmHg 40%
    01:00 +4°C° 0 mm 1 mps 769 mmHg 43%
    02:00 +4°C° 0 mm 1 mps 769 mmHg 46%
    03:00 +3°C° 0 mm 1 mps 769 mmHg 49%
    04:00 +3°C° 0 mm 1 mps 769 mmHg 52%
    05:00 +3°C° 0 mm 1 mps 769 mmHg 55%
    06:00 +3°C° 0 mm 1 mps 769 mmHg 56%
    07:00 +3°C° 0 mm 1 mps 769 mmHg 57%
    08:00 +3°C° 0 mm 1 mps 769 mmHg 58%
    09:00 +5°C° 0 mm 1 mps 769 mmHg 51%
    10:00 +8°C° 0 mm 1 mps 769 mmHg 45%
    11:00 +9°C° 0 mm 0 mps 769 mmHg 38%
    12:00 +11°C° 0 mm 1 mps 768 mmHg 34%
    13:00 +12°C° 0 mm 1 mps 767 mmHg 29%
    14:00 +12°C° 0 mm 1 mps 767 mmHg 25%
    15:00 +12°C° 0 mm 1 mps 766 mmHg 25%
    16:00 +12°C° 0 mm 1 mps 766 mmHg 24%
    17:00 +12°C° 0 mm 1 mps 765 mmHg 24%
    18:00 +11°C° 0 mm 1 mps 766 mmHg 26%
    19:00 +10°C° 0 mm 1 mps 766 mmHg 28%
    20:00 +9°C° 0 mm 1 mps 766 mmHg 30%
    21:00 +9°C° 0 mm 1 mps 766 mmHg 31%
    22:00 +8°C° 0 mm 1 mps 766 mmHg 31%
    23:00 +8°C° 0 mm 1 mps 766 mmHg 32%

    Day after tomorrow, 22 February, Friday

    Time Temperature Precipitation Wind Pressure Humidity
    00:00 +8°C° 0 mm 1 mps 766 mmHg 33%
    01:00 +8°C° 0 mm 1 mps 765 mmHg 34%
    02:00 +7°C° 0 mm 1 mps 765 mmHg 35%
    03:00 +7°C° 0 mm 1 mps 765 mmHg 36%
    04:00 +7°C° 0 mm 1 mps 765 mmHg 37%
    05:00 +7°C° 0 mm 1 mps 764 mmHg 38%
    06:00 +7°C° 0 mm 1 mps 765 mmHg 38%
    07:00 +7°C° 0 mm 1 mps 765 mmHg 38%
    08:00 +7°C° 0 mm 1 mps 765 mmHg 38%
    09:00 +9°C° 0 mm 1 mps 766 mmHg 34%
    10:00 +10°C° 0 mm 1 mps 766 mmHg 31%
    11:00 +11°C° 0 mm 0 mps 766 mmHg 28%
    12:00 +13°C° 0 mm 1 mps 765 mmHg 25%
    13:00 +13°C° 0 mm 1 mps 765 mmHg 23%
    14:00 +14°C° 0 mm 2 mps 764 mmHg 21%
    15:00 +14°C° 0 mm 2 mps 764 mmHg 20%
    16:00 +14°C° 0 mm 2 mps 764 mmHg 20%
    17:00 +14°C° 0 mm 2 mps 764 mmHg 20%
    18:00 +13°C° 0 mm 2 mps 765 mmHg 22%
    19:00 +10°C° 0 mm 2 mps 765 mmHg 24%
    20:00 +9°C° 0 mm 2 mps 766 mmHg 27%
    21:00 +9°C° 0 mm 1 mps 766 mmHg 28%
    22:00 +9°C° 0 mm 1 mps 767 mmHg 29%
    23:00 +8°C° 0 mm 1 mps 767 mmHg 30%

    23 February, Saturday

    Time Temperature Precipitation Wind Pressure Humidity
    00:00 +8°C° 0 mm 1 mps 767 mmHg 31%
    01:00 +7°C° 0 mm 1 mps 767 mmHg 31%
    02:00 +7°C° 0 mm 1 mps 767 mmHg 32%
    03:00 +5°C° 0 mm 2 mps 767 mmHg 33%
    04:00 +5°C° 0 mm 2 mps 767 mmHg 34%
    05:00 +4°C° 0 mm 2 mps 767 mmHg 35%
    06:00 +4°C° 0 mm 2 mps 767 mmHg 36%
    07:00 +4°C° 0 mm 2 mps 768 mmHg 37%
    08:00 +4°C° 0 mm 2 mps 768 mmHg 38%
    09:00 +6°C° 0 mm 2 mps 768 mmHg 32%
    10:00 +8°C° 0 mm 3 mps 768 mmHg 26%
    11:00 +10°C° 0 mm 3 mps 768 mmHg 20%
    12:00 +11°C° 0 mm 3 mps 768 mmHg 19%
    13:00 +12°C° 0 mm 3 mps 767 mmHg 17%
    14:00 +13°C° 0 mm 3 mps 766 mmHg 15%
    15:00 +14°C° 0 mm 2 mps 766 mmHg 16%
    16:00 +14°C° 0 mm 2 mps 765 mmHg 16%
    17:00 +14°C° 0 mm 2 mps 765 mmHg 17%
    18:00 +12°C° 0 mm 2 mps 765 mmHg 19%
    19:00 +10°C° 0 mm 2 mps 765 mmHg 22%
    20:00 +9°C° 0 mm 1 mps 766 mmHg 25%
    21:00 +9°C° 0 mm 1 mps 766 mmHg 26%
    22:00 +9°C° 0 mm 1 mps 766 mmHg 27%
    23:00 +8°C° 0 mm 1 mps 766 mmHg 28%

    24 February, Sunday

    Time Temperature Precipitation Wind Pressure Humidity
    00:00 +8°C° 0 mm 1 mps 766 mmHg 30%
    01:00 +8°C° 0 mm 1 mps 766 mmHg 31%
    02:00 +6°C° 0 mm 2 mps 766 mmHg 33%
    03:00 +6°C° 0 mm 2 mps 765 mmHg 35%
    04:00 +6°C° 0 mm 2 mps 765 mmHg 36%
    05:00 +5°C° 0 mm 2 mps 764 mmHg 38%
    06:00 +6°C° 0 mm 2 mps 764 mmHg 39%
    07:00 +5°C° 0 mm 3 mps 764 mmHg 39%
    08:00 +5°C° 0 mm 3 mps 764 mmHg 40%
    09:00 +7°C° 0 mm 3 mps 765 mmHg 37%
    10:00 +9°C° 0 mm 3 mps 765 mmHg 35%
    11:00 +10°C° 0 mm 3 mps 765 mmHg 33%
    12:00 +11°C° 0 mm 3 mps 764 mmHg 30%
    13:00 +12°C° 0 mm 3 mps 763 mmHg 27%
    14:00 +14°C° 0 mm 2 mps 763 mmHg 24%
    15:00 +14°C° 0 mm 2 mps 762 mmHg 24%
    16:00 +15°C° 0 mm 2 mps 762 mmHg 24%
    17:00 +15°C° 0 mm 1 mps 762 mmHg 23%
    18:00 +13°C° 0 mm 2 mps 762 mmHg 26%
    19:00 +12°C° 0 mm 2 mps 762 mmHg 29%
    20:00 +9°C° 0 mm 2 mps 763 mmHg 33%
    21:00 +9°C° 0 mm 2 mps 763 mmHg 34%
    22:00 +8°C° 0 mm 2 mps 763 mmHg 36%
    23:00 +8°C° 0 mm 2 mps 764 mmHg 37%

    25 February, Monday

    Time Temperature Precipitation Wind Pressure Humidity
    00:00 +7°C° 0 mm 2 mps 764 mmHg 40%
    01:00 +8°C° 0 mm 1 mps 764 mmHg 42%
    02:00 +8°C° 0 mm 1 mps 764 mmHg 44%
    03:00 +8°C° 0 mm 1 mps 764 mmHg 46%
    04:00 +7°C° 0 mm 1 mps 764 mmHg 47%
    05:00 +7°C° 0 mm 1 mps 763 mmHg 49%
    06:00 +7°C° 0 mm 1 mps 764 mmHg 48%
    07:00 +8°C° 0 mm 1 mps 764 mmHg 48%
    08:00 +8°C° 0 mm 1 mps 765 mmHg 47%
    09:00 +9°C° 0 mm 2 mps 765 mmHg 41%
    10:00 +10°C° 0 mm 2 mps 765 mmHg 35%
    11:00 +13°C° 0 mm 2 mps 766 mmHg 29%
    12:00 +14°C° 0 mm 2 mps 765 mmHg 26%
    13:00 +15°C° 0 mm 2 mps 764 mmHg 23%
    14:00 +16°C° 0 mm 2 mps 763 mmHg 20%
    15:00 +16°C° 0 mm 2 mps 763 mmHg 20%
    16:00 +16°C° 0 mm 2 mps 763 mmHg 21%
    17:00 +16°C° 0 mm 2 mps 763 mmHg 21%
    18:00 +15°C° 0 mm 2 mps 764 mmHg 23%
    19:00 +14°C° 0 mm 1 mps 764 mmHg 25%
    20:00 +13°C° 0 mm 1 mps 765 mmHg 27%
    21:00 +13°C° 0 mm 2 mps 765 mmHg 30%
    22:00 +12°C° 0 mm 2 mps 766 mmHg 33%
    23:00 +10°C° 0 mm 3 mps 766 mmHg 35%
    Show more